KAL2120 RJBB-RKSS

Flight info

Callsign KAL2120
Flight time 1h 11m
Altitude 34000
Route DCT OYE Y39 MIHOU Y38 SAPRA Y685 GUKDO GUKDO2T
Aircraft A321/M-SDE3FGHIRWY/LB1

Departure

Time 2026-04-30 11:34
Airport Kansai International Airport (RJBB)

Arrival

Time 2026-04-30 12:46
Airport Gimpo International Airport (RKSS)
Time Latitude Longitude Altitude Speed Heading
2026-04-30 11:10 34.43309 135.24434 19 ft 0 kts 321°
2026-04-30 11:22 34.43302 135.24441 19 ft 4 kts 321°
2026-04-30 11:23 34.43281 135.24461 21 ft 4 kts 321°
2026-04-30 11:23 34.43263 135.24484 19 ft 4 kts 299°
2026-04-30 11:23 34.43262 135.24533 19 ft 1 kts 231°
2026-04-30 11:24 34.43264 135.24536 19 ft 0 kts 231°
2026-04-30 11:26 34.43262 135.24532 20 ft 3 kts 230°
2026-04-30 11:26 34.43239 135.24500 19 ft 7 kts 230°
2026-04-30 11:26 34.43212 135.24460 19 ft 6 kts 230°
2026-04-30 11:27 34.43163 135.24388 19 ft 14 kts 231°
2026-04-30 11:27 34.43106 135.24302 19 ft 12 kts 231°
2026-04-30 11:27 34.43054 135.24225 19 ft 11 kts 232°
2026-04-30 11:27 34.43008 135.24153 19 ft 13 kts 232°
2026-04-30 11:28 34.42874 135.24007 19 ft 12 kts 181°
2026-04-30 11:28 34.42795 135.23978 20 ft 14 kts 222°
2026-04-30 11:28 34.42730 135.23885 21 ft 14 kts 231°
2026-04-30 11:29 34.42670 135.23796 20 ft 13 kts 231°
2026-04-30 11:29 34.42609 135.23705 20 ft 14 kts 231°
2026-04-30 11:29 34.42498 135.23540 20 ft 11 kts 230°
2026-04-30 11:30 34.42397 135.23392 19 ft 10 kts 232°
2026-04-30 11:30 34.42343 135.23310 19 ft 15 kts 230°
2026-04-30 11:30 34.42280 135.23218 20 ft 14 kts 231°
2026-04-30 11:31 34.42199 135.23098 19 ft 23 kts 231°
2026-04-30 11:31 34.42110 135.22967 19 ft 16 kts 230°
2026-04-30 11:31 34.42052 135.22882 19 ft 11 kts 231°
2026-04-30 11:31 34.41999 135.22804 19 ft 14 kts 231°
2026-04-30 11:32 34.41925 135.22770 19 ft 11 kts 161°
2026-04-30 11:32 34.41862 135.22824 17 ft 12 kts 142°
2026-04-30 11:32 34.41777 135.22919 15 ft 19 kts 119°
2026-04-30 11:33 34.41811 135.23036 14 ft 0 kts 51°
2026-04-30 11:33 34.41846 135.23088 15 ft 36 kts 50°
2026-04-30 11:33 34.42200 135.23613 14 ft 121 kts 51°
2026-04-30 11:34 34.42879 135.24626 24 ft 184 kts 51°
2026-04-30 11:34 34.43731 135.25880 718 ft 189 kts 51°
2026-04-30 11:34 34.44549 135.27082 1613 ft 187 kts 51°
2026-04-30 11:34 34.45426 135.28377 1777 ft 211 kts 52°
2026-04-30 11:35 34.46407 135.29830 2057 ft 234 kts 52°
2026-04-30 11:35 34.47504 135.31370 2574 ft 247 kts 44°
2026-04-30 11:35 34.49046 135.32397 3260 ft 263 kts 19°
2026-04-30 11:35 34.50921 135.32384 3926 ft 282 kts 346°
2026-04-30 11:36 34.52597 135.31103 4595 ft 294 kts 310°
2026-04-30 11:36 34.53508 135.28904 5290 ft 295 kts 281°
2026-04-30 11:36 34.53939 135.26465 6013 ft 297 kts 277°
2026-04-30 11:36 34.54295 135.23989 6750 ft 299 kts 276°
2026-04-30 11:37 34.54625 135.21521 7459 ft 302 kts 276°
2026-04-30 11:37 34.54968 135.19004 8206 ft 304 kts 276°
2026-04-30 11:37 34.55327 135.16473 8927 ft 305 kts 276°
2026-04-30 11:37 34.55705 135.13935 9609 ft 307 kts 277°
2026-04-30 11:38 34.56094 135.11380 10287 ft 311 kts 277°
2026-04-30 11:38 34.56501 135.08711 10443 ft 332 kts 278°
2026-04-30 11:38 34.56932 135.05875 10565 ft 352 kts 278°
2026-04-30 11:38 34.57385 135.02912 10966 ft 361 kts 278°
2026-04-30 11:39 34.57852 134.99903 11617 ft 363 kts 278°
2026-04-30 11:39 34.58318 134.96892 12385 ft 361 kts 278°
2026-04-30 11:39 34.58777 134.93909 13142 ft 358 kts 278°
2026-04-30 11:39 34.59231 134.90932 13803 ft 360 kts 278°
2026-04-30 11:40 34.59686 134.87939 14425 ft 361 kts 278°
2026-04-30 11:40 34.60139 134.84931 15007 ft 363 kts 277°
2026-04-30 11:40 34.60594 134.81905 15564 ft 365 kts 277°
2026-04-30 11:40 34.61053 134.78863 16106 ft 367 kts 277°
2026-04-30 11:41 34.61513 134.75810 16626 ft 369 kts 277°
2026-04-30 11:41 34.61969 134.72775 17125 ft 371 kts 277°
2026-04-30 11:41 34.62431 134.69687 17596 ft 373 kts 277°
2026-04-30 11:41 34.62895 134.66580 18074 ft 375 kts 277°
2026-04-30 11:42 34.63362 134.63462 18551 ft 376 kts 277°
2026-04-30 11:42 34.63832 134.60333 18992 ft 378 kts 277°
2026-04-30 11:42 34.64304 134.57181 19405 ft 380 kts 277°
2026-04-30 11:42 34.64773 134.54014 19810 ft 382 kts 276°
2026-04-30 11:43 34.65244 134.50824 20222 ft 384 kts 276°
2026-04-30 11:43 34.65718 134.47617 20631 ft 385 kts 276°
2026-04-30 11:43 34.66193 134.44408 21003 ft 387 kts 276°
2026-04-30 11:43 34.66673 134.41180 21369 ft 389 kts 276°
2026-04-30 11:44 34.67153 134.37933 21745 ft 391 kts 276°
2026-04-30 11:44 34.67633 134.34679 22111 ft 392 kts 276°
2026-04-30 11:44 34.68113 134.31409 22464 ft 394 kts 276°
2026-04-30 11:44 34.68586 134.28165 22803 ft 396 kts 276°
2026-04-30 11:45 34.69076 134.24818 23144 ft 398 kts 276°
2026-04-30 11:45 34.69561 134.21503 23475 ft 399 kts 276°
2026-04-30 11:45 34.70047 134.18178 23816 ft 401 kts 276°
2026-04-30 11:45 34.70528 134.14869 24127 ft 402 kts 276°
2026-04-30 11:46 34.71015 134.11514 24431 ft 404 kts 275°
2026-04-30 11:46 34.71509 134.08146 24729 ft 406 kts 277°
2026-04-30 11:46 34.72385 134.04849 25020 ft 415 kts 287°
2026-04-30 11:46 34.73500 134.01606 25311 ft 417 kts 287°
2026-04-30 11:47 34.74631 133.98353 25600 ft 418 kts 287°
2026-04-30 11:47 34.75772 133.95082 25829 ft 421 kts 287°
2026-04-30 11:47 34.76919 133.91795 26044 ft 424 kts 286°
2026-04-30 11:47 34.78073 133.88489 26354 ft 424 kts 286°
2026-04-30 11:48 34.79228 133.85178 26636 ft 425 kts 286°
2026-04-30 11:48 34.80383 133.81862 26913 ft 427 kts 286°
2026-04-30 11:48 34.81541 133.78532 27199 ft 428 kts 286°
2026-04-30 11:48 34.82698 133.75195 27459 ft 429 kts 286°
2026-04-30 11:49 34.83857 133.71841 27719 ft 430 kts 285°
2026-04-30 11:49 34.85016 133.68473 27977 ft 432 kts 285°
2026-04-30 11:49 34.86182 133.65088 28230 ft 434 kts 285°
2026-04-30 11:49 34.87338 133.61728 28481 ft 434 kts 285°
2026-04-30 11:50 34.88502 133.58339 28832 ft 433 kts 285°
2026-04-30 11:50 34.89666 133.54955 29170 ft 432 kts 285°
2026-04-30 11:50 34.90829 133.51577 29540 ft 430 kts 285°
2026-04-30 11:50 34.91983 133.48221 29900 ft 428 kts 284°
2026-04-30 11:51 34.93132 133.44868 30198 ft 428 kts 284°
2026-04-30 11:51 34.94275 133.41531 30531 ft 427 kts 284°
2026-04-30 11:51 34.95417 133.38197 30882 ft 425 kts 284°
2026-04-30 11:51 34.96536 133.34924 31216 ft 423 kts 284°
2026-04-30 11:52 34.97678 133.31573 31564 ft 421 kts 283°
2026-04-30 11:52 34.98783 133.28326 31915 ft 419 kts 283°
2026-04-30 11:52 34.99899 133.25051 32274 ft 417 kts 284°
2026-04-30 11:52 35.01008 133.21791 32648 ft 415 kts 283°
2026-04-30 11:53 35.02107 133.18553 33029 ft 412 kts 283°
2026-04-30 11:53 35.03197 133.15334 33406 ft 409 kts 283°
2026-04-30 11:53 35.04281 133.12133 33694 ft 407 kts 283°
2026-04-30 11:53 35.05359 133.08946 33890 ft 406 kts 283°
2026-04-30 11:54 35.07503 133.02621 33935 ft 400 kts 283°
2026-04-30 11:54 35.09623 132.96347 33936 ft 400 kts 282°
2026-04-30 11:55 35.11730 132.90071 33936 ft 400 kts 282°
2026-04-30 11:55 35.13837 132.83796 33933 ft 399 kts 282°
2026-04-30 11:56 35.15928 132.77580 33925 ft 397 kts 282°
2026-04-30 11:56 35.18019 132.71335 33926 ft 398 kts 282°
2026-04-30 11:57 35.20114 132.65070 33928 ft 398 kts 282°
2026-04-30 11:57 35.22194 132.58848 33927 ft 398 kts 282°
2026-04-30 11:58 35.24282 132.52569 33924 ft 398 kts 282°
2026-04-30 11:58 35.26363 132.46276 33929 ft 400 kts 282°
2026-04-30 11:59 35.28460 132.39976 33931 ft 399 kts 282°
2026-04-30 11:59 35.30549 132.33678 33933 ft 398 kts 282°
2026-04-30 12:00 35.32606 132.27413 33933 ft 399 kts 282°
2026-04-30 12:00 35.34676 132.21114 33931 ft 399 kts 282°
2026-04-30 12:01 35.36245 132.16345 33932 ft 398 kts 282°
2026-04-30 12:01 35.38186 132.10427 33935 ft 398 kts 282°
2026-04-30 12:02 35.40266 132.04079 33936 ft 397 kts 282°
2026-04-30 12:02 35.42319 131.97789 33934 ft 397 kts 282°
2026-04-30 12:03 35.45401 131.88338 33929 ft 398 kts 282°
2026-04-30 12:04 35.47448 131.82034 33925 ft 398 kts 282°
2026-04-30 12:04 35.49489 131.75720 33925 ft 398 kts 281°
2026-04-30 12:05 35.51530 131.69411 33929 ft 398 kts 282°
2026-04-30 12:05 35.53547 131.63160 33930 ft 399 kts 281°
2026-04-30 12:06 35.55590 131.56838 33946 ft 397 kts 280°
2026-04-30 12:06 35.57617 131.50533 33945 ft 396 kts 280°
2026-04-30 12:07 35.59630 131.44247 33950 ft 395 kts 280°
2026-04-30 12:07 35.61637 131.37969 33946 ft 394 kts 280°
2026-04-30 12:08 35.63624 131.31736 33947 ft 394 kts 280°
2026-04-30 12:08 35.65632 131.25453 33948 ft 395 kts 280°
2026-04-30 12:09 35.67632 131.19170 33954 ft 395 kts 280°
2026-04-30 12:09 35.69581 131.13019 33945 ft 395 kts 280°
2026-04-30 12:10 35.71483 131.07008 33937 ft 395 kts 280°
2026-04-30 12:10 35.73479 131.00717 33933 ft 395 kts 280°
2026-04-30 12:11 35.75472 130.94420 33933 ft 394 kts 279°
2026-04-30 12:11 35.77453 130.88120 33929 ft 395 kts 279°
2026-04-30 12:12 35.79432 130.81800 33899 ft 394 kts 279°
2026-04-30 12:12 35.80420 130.78644 33281 ft 394 kts 279°
2026-04-30 12:12 35.81407 130.75479 32500 ft 397 kts 279°
2026-04-30 12:12 35.82275 130.72308 31664 ft 393 kts 274°
2026-04-30 12:13 35.82818 130.69022 30732 ft 390 kts 268°
2026-04-30 12:13 35.83233 130.65677 29706 ft 398 kts 269°
2026-04-30 12:13 35.83655 130.62276 28803 ft 403 kts 269°
2026-04-30 12:13 35.84089 130.58877 28206 ft 401 kts 270°
2026-04-30 12:14 35.84527 130.55479 27965 ft 402 kts 270°
2026-04-30 12:14 35.84961 130.52065 27934 ft 404 kts 270°
2026-04-30 12:14 35.86277 130.41702 27945 ft 407 kts 270°
2026-04-30 12:14 35.88006 130.27867 27945 ft 408 kts 270°
2026-04-30 12:15 35.89713 130.14037 27931 ft 408 kts 270°
2026-04-30 12:15 35.91413 130.00206 27883 ft 407 kts 270°
2026-04-30 12:15 35.92482 129.91408 27837 ft 409 kts 269°
2026-04-30 12:15 35.92902 129.87941 27952 ft 409 kts 270°
2026-04-30 12:16 35.94046 129.78430 27956 ft 408 kts 269°
2026-04-30 12:16 35.95695 129.64585 27940 ft 407 kts 269°
2026-04-30 12:16 35.97274 129.51301 27912 ft 408 kts 271°
2026-04-30 12:16 35.98017 129.47869 27910 ft 421 kts 282°
2026-04-30 12:17 36.01142 129.41520 27922 ft 440 kts 296°
2026-04-30 12:17 36.02945 129.38456 27910 ft 441 kts 296°
2026-04-30 12:17 36.04734 129.35381 27910 ft 441 kts 296°
2026-04-30 12:18 36.06510 129.32299 27901 ft 441 kts 296°
2026-04-30 12:18 36.08285 129.29199 27900 ft 441 kts 296°
2026-04-30 12:18 36.10060 129.26098 27900 ft 442 kts 296°
2026-04-30 12:18 36.11840 129.22996 27901 ft 442 kts 296°
2026-04-30 12:19 36.13549 129.20027 27921 ft 443 kts 296°
2026-04-30 12:19 36.15339 129.16919 27931 ft 446 kts 296°
2026-04-30 12:19 36.17070 129.13900 27933 ft 446 kts 296°
2026-04-30 12:20 36.20648 129.07663 27950 ft 445 kts 296°
2026-04-30 12:20 36.22421 129.04573 27953 ft 444 kts 296°
2026-04-30 12:20 36.24225 129.01421 27948 ft 444 kts 296°
2026-04-30 12:20 36.26008 128.98299 27943 ft 444 kts 296°
2026-04-30 12:21 36.27764 128.95218 27945 ft 444 kts 296°
2026-04-30 12:21 36.29539 128.92106 27569 ft 441 kts 296°
2026-04-30 12:21 36.31314 128.88992 26702 ft 444 kts 297°
2026-04-30 12:21 36.33094 128.85864 26019 ft 443 kts 297°
2026-04-30 12:22 36.34870 128.82749 25403 ft 440 kts 298°
2026-04-30 12:22 36.36631 128.79663 24788 ft 437 kts 298°
2026-04-30 12:22 36.38382 128.76585 24183 ft 434 kts 298°
2026-04-30 12:22 36.40117 128.73528 23570 ft 431 kts 299°
2026-04-30 12:23 36.41838 128.70493 22962 ft 429 kts 299°
2026-04-30 12:23 36.43547 128.67471 22362 ft 426 kts 299°
2026-04-30 12:23 36.45242 128.64469 22000 ft 424 kts 299°
2026-04-30 12:23 36.46938 128.61456 21892 ft 428 kts 299°
2026-04-30 12:24 36.48668 128.58378 21942 ft 441 kts 300°
2026-04-30 12:24 36.50450 128.55205 21944 ft 454 kts 300°
2026-04-30 12:24 36.52280 128.51951 21944 ft 466 kts 300°
2026-04-30 12:24 36.54151 128.48622 21942 ft 472 kts 300°
2026-04-30 12:25 36.56043 128.45268 21943 ft 473 kts 300°
2026-04-30 12:25 36.57933 128.41917 21942 ft 474 kts 300°
2026-04-30 12:25 36.59825 128.38560 21943 ft 474 kts 300°
2026-04-30 12:25 36.61692 128.35241 21936 ft 468 kts 300°
2026-04-30 12:26 36.63556 128.31925 21948 ft 471 kts 300°
2026-04-30 12:26 36.65446 128.28573 21944 ft 474 kts 300°
2026-04-30 12:26 36.67352 128.25221 21932 ft 474 kts 300°
2026-04-30 12:26 36.69262 128.21875 21930 ft 469 kts 301°
2026-04-30 12:27 36.71117 128.18638 21927 ft 448 kts 300°
2026-04-30 12:27 36.72893 128.15548 21924 ft 428 kts 300°
2026-04-30 12:27 36.74590 128.12592 21926 ft 409 kts 300°
2026-04-30 12:27 36.76207 128.09767 21932 ft 391 kts 300°
2026-04-30 12:28 36.77749 128.07066 21932 ft 378 kts 299°
2026-04-30 12:28 36.79292 128.04322 21939 ft 394 kts 299°
2026-04-30 12:28 36.80892 128.01444 21762 ft 415 kts 299°
2026-04-30 12:28 36.82575 127.98412 21508 ft 434 kts 300°
2026-04-30 12:29 36.84344 127.95247 21132 ft 456 kts 300°
2026-04-30 12:29 36.86194 127.91961 20560 ft 466 kts 301°
2026-04-30 12:29 36.88070 127.88659 19993 ft 465 kts 301°
2026-04-30 12:29 36.89941 127.85374 19460 ft 463 kts 301°
2026-04-30 12:30 36.91796 127.82097 18791 ft 460 kts 301°
2026-04-30 12:30 36.93605 127.78771 17760 ft 463 kts 300°
2026-04-30 12:30 36.95301 127.75522 17009 ft 441 kts 299°
2026-04-30 12:30 36.96953 127.72291 15869 ft 443 kts 299°
2026-04-30 12:31 36.98582 127.69063 15458 ft 437 kts 299°
2026-04-30 12:31 37.00194 127.65870 14917 ft 432 kts 300°
2026-04-30 12:31 37.01807 127.62703 14350 ft 428 kts 300°
2026-04-30 12:31 37.03410 127.59588 13897 ft 425 kts 300°
2026-04-30 12:32 37.04997 127.56511 13331 ft 421 kts 300°
2026-04-30 12:32 37.06586 127.53428 12753 ft 417 kts 301°
2026-04-30 12:32 37.08136 127.50431 12208 ft 413 kts 301°
2026-04-30 12:32 37.09686 127.47432 12000 ft 396 kts 301°
2026-04-30 12:33 37.11137 127.44602 11851 ft 372 kts 301°
2026-04-30 12:33 37.12469 127.42012 11704 ft 343 kts 301°
2026-04-30 12:33 37.13714 127.39595 11578 ft 319 kts 301°
2026-04-30 12:33 37.14886 127.37319 11222 ft 304 kts 301°
2026-04-30 12:34 37.16019 127.35110 10650 ft 298 kts 301°
2026-04-30 12:34 37.17125 127.32945 10302 ft 293 kts 302°
2026-04-30 12:34 37.18208 127.30826 10081 ft 283 kts 302°
2026-04-30 12:34 37.19263 127.28758 10006 ft 282 kts 302°
2026-04-30 12:35 37.20311 127.26697 9734 ft 279 kts 302°
2026-04-30 12:35 37.21336 127.24686 9593 ft 267 kts 302°
2026-04-30 12:35 37.22315 127.22759 9395 ft 258 kts 302°
2026-04-30 12:35 37.23248 127.20914 9251 ft 241 kts 303°
2026-04-30 12:36 37.24127 127.19182 8906 ft 232 kts 304°
2026-04-30 12:36 37.25008 127.17493 8288 ft 231 kts 307°
2026-04-30 12:36 37.26058 127.16006 7869 ft 224 kts 318°
2026-04-30 12:36 37.27180 127.14677 7542 ft 217 kts 317°
2026-04-30 12:37 37.28235 127.13403 7248 ft 208 kts 317°
2026-04-30 12:37 37.29257 127.12168 6972 ft 201 kts 317°
2026-04-30 12:37 37.30286 127.10999 6703 ft 198 kts 322°
2026-04-30 12:37 37.31339 127.09885 6419 ft 198 kts 319°
2026-04-30 12:38 37.32343 127.08701 6144 ft 197 kts 316°
2026-04-30 12:38 37.33319 127.07502 5887 ft 195 kts 316°
2026-04-30 12:38 37.34285 127.06303 5625 ft 195 kts 316°
2026-04-30 12:38 37.35247 127.05106 5360 ft 194 kts 316°
2026-04-30 12:39 37.36208 127.03911 5104 ft 194 kts 316°
2026-04-30 12:39 37.37161 127.02724 4846 ft 191 kts 315°
2026-04-30 12:39 37.38080 127.01579 4609 ft 178 kts 315°
2026-04-30 12:39 37.38929 127.00521 4358 ft 165 kts 315°
2026-04-30 12:40 37.39712 126.99545 4163 ft 154 kts 315°
2026-04-30 12:40 37.40470 126.98600 3958 ft 153 kts 315°
2026-04-30 12:40 37.41225 126.97659 3753 ft 152 kts 315°
2026-04-30 12:40 37.41975 126.96725 3550 ft 152 kts 315°
2026-04-30 12:41 37.42722 126.95792 3354 ft 151 kts 315°
2026-04-30 12:41 37.43469 126.94859 3153 ft 151 kts 314°
2026-04-30 12:41 37.44212 126.93932 2947 ft 149 kts 314°
2026-04-30 12:41 37.44940 126.93022 2758 ft 149 kts 315°
2026-04-30 12:42 37.45684 126.92090 2554 ft 149 kts 314°
2026-04-30 12:42 37.46405 126.91190 2357 ft 148 kts 314°
2026-04-30 12:42 37.47141 126.90270 2157 ft 147 kts 314°
2026-04-30 12:42 37.47869 126.89362 1966 ft 147 kts 313°
2026-04-30 12:43 37.48579 126.88473 1772 ft 146 kts 314°
2026-04-30 12:43 37.49299 126.87572 1581 ft 146 kts 313°
2026-04-30 12:43 37.50016 126.86675 1388 ft 145 kts 313°
2026-04-30 12:43 37.50731 126.85780 1197 ft 144 kts 313°
2026-04-30 12:44 37.51441 126.84890 1006 ft 144 kts 313°
2026-04-30 12:44 37.52157 126.84003 802 ft 144 kts 313°
2026-04-30 12:44 37.52868 126.83115 584 ft 144 kts 313°
2026-04-30 12:44 37.53576 126.82229 406 ft 144 kts 313°
2026-04-30 12:45 37.54283 126.81337 254 ft 144 kts 313°
2026-04-30 12:45 37.54988 126.80447 96 ft 141 kts 314°
2026-04-30 12:45 37.55604 126.79666 65 ft 100 kts 315°
2026-04-30 12:45 37.55977 126.79202 62 ft 52 kts 315°
2026-04-30 12:46 37.56154 126.79035 64 ft 27 kts 334°
2026-04-30 12:46 37.56300 126.78989 66 ft 15 kts 23°
2026-04-30 12:46 37.56302 126.79086 66 ft 10 kts 130°
2026-04-30 12:46 37.56301 126.79088 66 ft 0 kts 130°
2026-04-30 12:47 37.56294 126.79111 64 ft 7 kts 103°
2026-04-30 12:48 37.56320 126.79181 59 ft 10 kts 48°
2026-04-30 12:48 37.56368 126.79243 60 ft 9 kts 42°
2026-04-30 12:48 37.56412 126.79295 63 ft 8 kts 44°
2026-04-30 12:48 37.56449 126.79341 67 ft 7 kts 45°
2026-04-30 12:49 37.56486 126.79389 61 ft 8 kts 45°
2026-04-30 12:49 37.56524 126.79437 62 ft 7 kts 45°
2026-04-30 12:49 37.56556 126.79479 60 ft 6 kts 45°
2026-04-30 12:49 37.56587 126.79518 62 ft 7 kts 45°
2026-04-30 12:50 37.56621 126.79561 67 ft 6 kts 45°
2026-04-30 12:50 37.56650 126.79596 63 ft 5 kts 45°
2026-04-30 12:50 37.56678 126.79632 67 ft 7 kts 45°
2026-04-30 12:50 37.56712 126.79675 67 ft 6 kts 45°
2026-04-30 12:51 37.56740 126.79710 67 ft 5 kts 45°
2026-04-30 12:51 37.56762 126.79737 67 ft 4 kts 45°
2026-04-30 12:51 37.56777 126.79757 67 ft 3 kts 47°
2026-04-30 12:51 37.56781 126.79769 61 ft 1 kts 81°
2026-04-30 12:52 37.56781 126.79770 67 ft 0 kts 82°
2026-04-30 12:52 37.56772 126.79809 63 ft 11 kts 116°
2026-04-30 12:52 37.56717 126.79885 65 ft 10 kts 134°
2026-04-30 12:52 37.56682 126.79916 67 ft 4 kts 157°
2026-04-30 12:53 37.56657 126.79924 64 ft 3 kts 166°
2026-04-30 12:53 37.56638 126.79930 67 ft 2 kts 166°
2026-04-30 12:53 37.56626 126.79934 67 ft 3 kts 166°
2026-04-30 12:53 37.56614 126.79937 59 ft 0 kts 166°
2026-04-30 12:54 37.56611 126.79938 64 ft 0 kts 166°